Location: Bolsenheim
(48.4204°N, 7.6098°E)
Time: 02:09:24
(UTC+00:00)

Daily predictions for brighter satellites

Satellite Brightness Start Highest point End
(mag) Time Altitude Azimuth Time Altitude Azimuth Time Altitude Azimuth
CENTAUR R/B 4.3 02:14:21 36° E 02:14:21 36° E 02:19:24 10° ESE
Cosmos 2263 Rocket 3.9 03:01:26 29° ENE 03:01:26 29° ENE 03:04:47 10° NE
SJ 16-02 4.2 03:08:47 16° ENE 03:08:47 16° ENE 03:10:30 10° NE
CZ-4C R/B 4.4 03:25:49 13° SSE 03:28:35 19° ESE 03:32:27 10° ENE
BREEZE-M DEB (TANK) 4.4 03:30:34 88° N 03:30:34 88° N 03:35:02 10° ESE
ATLAS 3B R/B 3.4 03:30:35 45° N 03:31:44 48° NE 03:38:37 10° ESE
Cosmos 1943 4.4 03:36:00 34° SSE 03:36:00 34° SSE 03:39:06 10° SSE
Lacrosse 4 Rocket 3.8 03:38:11 19° SE 03:38:11 19° SE 03:39:34 10° SE
Cosmos 923 Rocket 4.4 03:53:37 62° ENE 03:53:40 62° ENE 03:58:55 10° SE
ALOS 3.1 03:49:18 10° NNE 03:53:16 49° ENE 03:53:16 49° ENE
Cosmos 2227 Rocket 4.3 03:57:13 14° N 03:57:13 14° N 03:58:20 10° N
Cosmos 2344 4.5 03:53:01 32° NNW 03:58:08 69° NE 04:10:38 10° SE
NOSS 3-2 (C) 4.2 04:00:07 54° SW 04:00:07 54° SW 04:08:04 10° SSE
Cosmos 2227 4.3 04:01:36 64° NNE 04:01:36 64° NNE 04:06:22 10° NNE
CENTAUR R/B 3.2 04:01:35 55° WSW 04:01:49 55° WSW 04:10:21 10° SSE
NOSS 3-4 (A) 3.5 04:00:50 59° S 04:01:55 74° SE 04:08:15 10° NE
NOSS 3-4 (C) 3.5 04:00:54 58° S 04:02:03 73° SE 04:08:22 10° NE
ARGOS Delta rocket 4.0 03:59:48 10° NNE 04:04:43 74° ENE 04:04:43 74° ENE
Meteor 1-31 Rocket 4.4 04:02:51 10° NNE 04:05:08 29° NE 04:05:08 29° NE
USA 306 4.3 04:10:52 32° NNE 04:10:52 32° NNE 04:13:48 10° ENE
Cosmos 158 Rocket 3.8 04:10:38 78° ESE 04:10:38 78° ESE 04:15:25 10° SSE
SL-4 R/B 3.2 04:15:02 35° NE 04:15:02 35° NE 04:17:25 10° ENE
Cosmos 1151 Rocket 4.2 04:17:01 34° SSE 04:17:01 34° SSE 04:19:28 10° S
Cosmos 1782 3.4 04:16:34 55° ENE 04:16:35 55° ENE 04:20:33 10° SSE
SKYMED 2 4.2 04:13:41 10° SSE 04:17:55 55° ENE 04:19:24 36° NNE
Cosmos 1844 Rocket 4.3 04:13:05 10° SSE 04:18:05 33° ESE 04:23:07 10° NE
ATLAS 2AS CENTAUR R/B 3.1 04:15:31 19° SSW 04:21:35 80° SE 04:29:26 10° NE
Cosmos 1680 Rocket 3.5 04:20:02 46° NNW 04:21:41 79° ENE 04:26:59 10° SSE
Cosmos 2297 Rocket 4.3 04:30:30 12° N 04:30:30 12° N 04:31:31 10° N
ATLAS 5 CENTAUR R/B 3.4 04:31:19 24° NNE 04:31:19 24° NNE 04:32:31 10° NNE
RESURS DK-1 3.6 04:28:12 10° S 04:32:07 42° ESE 04:36:04 10° NE
ATLAS CENTAUR R/B 1.5 04:32:06 57° NE 04:32:12 58° NE 04:36:03 10° SE
CRYOSAT 2 4.3 04:28:07 10° S 04:32:59 84° E 04:37:53 10° N
Lacrosse 5 1.9 04:32:03 47° SW 04:33:30 77° SE 04:38:35 10° NE
ADEOS 3.4 04:28:29 10° NNE 04:33:45 80° WNW 04:38:57 10° SSW
Cosmos 1328 Rocket 3.6 04:35:39 63° SW 04:35:39 63° SW 04:39:34 10° S
ERBS 4.4 04:38:12 19° NNE 04:38:12 19° NNE 04:39:34 10° NE
Cosmos 2112 Rocket 3.9 04:38:53 32° NNW 04:41:27 84° WSW 04:46:48 10° SSE
Gbstr 26 Del rocket 2.8 04:43:34 58° SSW 04:43:34 58° SSW 04:47:13 10° SE
Cosmos 2263 Rocket 2.5 04:43:11 43° WNW 04:43:28 44° NW 04:48:56 10° NNE
SJ 16-02 1.3 04:45:52 56° WNW 04:45:52 56° WNW 04:50:08 10° NNE
Meteor 1-26 Rocket 4.3 04:48:59 21° NNW 04:52:45 53° W 04:58:10 10° S
Cosmos 1898 Rocket 3.6 04:47:57 10° SSW 04:53:15 77° ESE 04:58:37 10° NNE
CZ-2C R/B 4.5 04:51:21 10° ESE 04:55:58 29° ENE 05:00:32 10° N
Cosmos 1766 Rocket 4.4 04:58:04 33° NW 04:58:04 33° NW 05:01:03 10° N
FALCON 9 DEB 3.1 04:56:35 61° SSW 04:56:56 69° SSE 05:00:08 10° ENE
FALCON 9 DEB 3.0 04:56:45 66° SSW 04:57:02 73° SSE 05:00:15 10° ENE
FENGYUN 3A 3.9 04:53:23 10° N 04:58:32 46° WNW 05:03:39 10° SW
Envisat 4.5 04:54:10 10° NNE 04:58:55 39° E 05:03:39 10° SSE
Cosmos 1743 Rocket 3.8 04:56:17 10° S 05:00:42 70° E 05:05:10 10° NNE
H-2A R/B 4.4 04:58:59 10° NE 05:02:21 28° E 05:05:41 10° SSE
Cosmos 1408 Rocket 3.5 04:58:18 10° SSW 05:02:43 61° WNW 05:07:09 10° N
Cosmos 2082 Rocket 4.3 04:59:12 10° N 05:03:23 20° NE 05:07:33 10° E
Cosmos 2181 Rocket 4.2 04:57:56 10° NNW 05:03:49 46° W 05:09:36 10° SSW
COSMO-SKYMED 1 2.7 05:01:47 10° S 05:05:59 49° W 05:07:59 28° NW
USA 307 3.7 05:05:08 31° NW 05:06:33 41° N 05:10:39 10° E
Cosmos 1709 Rocket 4.5 05:01:50 10° SW 05:07:41 37° WNW 05:13:34 10° N
Cosmos 1937 Rocket 3.6 05:05:11 10° SSW 05:10:20 79° ESE 05:15:33 10° NNE
USA 308 3.7 05:11:14 28° NW 05:12:55 42° N 05:17:02 10° E
Lacrosse 4 Rocket 3.2 05:14:32 17° SW 05:14:32 17° SW 05:16:34 10° SSW
Cosmos 1833 Rocket 4.1 05:09:02 10° NNW 05:14:07 33° NE 05:19:11 10° ESE
Meteor 2-3 Rocket 4.1 05:09:31 10° SW 05:14:55 42° WNW 05:20:25 10° N
CZ-4C R/B 2.0 05:11:07 10° SW 05:16:09 77° NW 05:22:17 10° NE
MOS 1 Rocket 3.4 05:11:31 10° SSE 05:16:21 88° ENE 05:21:32 10° NNW
Cosmos 2154 Rocket 4.2 05:10:22 10° S 05:16:34 77° E 05:22:51 10° NNE
CZ-4B R/B 3.1 05:12:48 10° N 05:17:16 62° WNW 05:21:37 10° SSW
Meteor 1-27 Rocket 4.3 05:12:35 10° N 05:18:19 62° ENE 05:24:07 10° SSE
Cosmos 1689 Rocket 3.2 05:16:21 10° SSW 05:18:12 27° SW 05:18:12 27° SW
FALCON 9 DEB 2.8 05:18:33 35° WSW 05:19:46 84° NNW 05:23:00 10° ENE
Cosmos 1805 Rocket 4.3 05:15:34 10° S 05:19:54 56° E 05:24:17 10° NNE
Meteor 1-10 Rocket 4.1 05:14:47 10° NNW 05:20:22 83° W 05:25:59 10° S
ATLAS 3B R/B 3.0 05:17:51 20° NW 05:22:34 52° WSW 05:29:29 10° SSE
Aureole 2 Rocket 2.4 05:21:44 10° S 05:24:12 54° ESE 05:26:44 10° NNE
COSMOS 2406 4.2 05:18:49 10° NNW 05:24:21 46° NE 05:29:52 10° SE
Cosmos 1862 3.2 05:23:24 10° SSW 05:27:27 72° W 05:31:32 10° N
YAOGAN 6 3.0 05:24:33 10° NNE 05:28:02 63° E 05:31:29 10° S
Genesis I 3.0 05:25:03 10° SW 05:28:51 67° NW 05:32:42 10° NE
deb Chang Zheng 4 4.3 05:27:07 10° N 05:30:55 30° WNW 05:34:43 10° SW
ALOS 3.4 05:27:25 10° NNW 05:30:59 22° WNW 05:31:45 21° WNW
Cosmos 858 Rocket 4.4 05:29:27 10° SSW 05:34:39 69° WNW 05:39:55 10° NNE
Cosmos 2327 Rocket 4.4 05:29:54 10° SSW 05:35:59 77° W 05:42:07 10° N
Cosmos 990 Rocket 4.3 05:31:04 10° SW 05:36:05 45° WNW 05:41:09 10° NNE
PSLV R/B 3.6 05:32:58 10° NNE 05:36:53 80° WNW 05:40:39 10° SSW
Cosmos 2074 Rocket 4.1 05:31:27 10° SSW 05:37:28 52° WNW 05:43:33 10° N
ASTRO F (AKARI) 4.2 05:35:48 10° N 05:38:50 53° WNW 05:41:53 10° SSW
Meteor 1-31 Rocket 4.1 05:37:55 10° NNW 05:40:28 19° WNW 05:40:28 19° WNW
USA 305 3.5 05:38:55 18° NW 05:41:52 49° NNE 05:46:03 10° E
BREEZE M DEB (TANK) 3.6 05:35:29 10° SW 05:42:21 44° SSE 05:45:00 10° E
Cosmos 405 Rocket 2.7 05:39:41 10° SSW 05:43:19 52° WNW 05:47:00 10° N
SL-24 DEB 4.2 05:38:45 10° S 05:43:31 79° W 05:48:20 10° N
Cosmos 1812 3.2 05:43:11 10° NNW 05:46:46 37° W 05:50:19 10° SSW
EO 1 Delta rocket 4.3 05:42:36 10° SSW 05:47:20 41° W 05:51:44 10° NNW
Cosmos 1295 Rocket 4.4 05:42:51 10° SSW 05:48:56 78° W 05:55:05 10° N
Cosmos 2228 Rocket 3.5 05:45:07 10° NNW 05:49:16 41° W 05:53:24 10° SSW
USA 306 3.4 05:47:01 16° NW 05:50:20 51° NNE 05:54:33 10° E
NOSS 3-4 (A) 4.2 05:48:19 12° W 05:53:22 34° NNW 05:59:19 10° NE
Cosmos 1633 Rocket 4.1 05:49:12 10° SSE 05:53:29 50° E 05:57:46 10° NNE
NOSS 3-4 (C) 4.2 05:48:24 12° W 05:53:30 35° NNW 05:59:27 10° NE
SL-4 R/B 2.0 05:50:37 16° WNW 05:53:35 56° N 05:57:09 10° E
Cosmos 2184 Rocket 4.4 05:49:10 10° SW 05:55:08 42° WNW 06:01:09 10° N
USA 234 3.8 05:51:13 10° ENE 05:57:44 64° SE 06:04:12 10° SW
Cosmos 1356 3.6 05:55:33 10° S 05:58:57 75° E 06:02:22 10° NNE
FALCON 9 DEB 3.3 05:56:58 13° W 05:59:40 48° NNW 06:02:49 10° ENE
Cosmos 1844 Rocket 3.0 05:56:23 10° SW 06:01:49 46° NW 06:07:18 10° NNE
FALCON 9 DEB 3.5 05:59:52 13° WNW 06:02:49 54° NNE 06:06:15 10° E
Cosmos 1707 Rocket 3.5 06:02:04 10° NNW 06:06:23 69° W 06:10:41 10° S
EXPRESS MD2 4.3 06:03:36 11° WNW 06:07:24 70° SSW 06:15:37 10° ESE
MOS 1-B 4.3 06:02:16 10° NNE 06:08:05 72° WNW 06:13:51 10° SSW
COSMOS 2455 2.9 06:03:53 10° SW 06:09:55 82° NW 06:16:01 10° NNE
RESURS DK-1 3.4 06:06:48 10° WSW 06:10:18 26° NW 06:13:50 10° N
ATLAS CENTAUR R/B 3.0 06:08:18 10° WNW 06:10:43 17° WSW 06:13:16 10° SSW
BREEZE-M (TANK) 4.3 06:05:11 10° SW 06:10:59 33° SSE 06:13:24 10° E
NOAA 6 4.1 06:06:11 10° N 06:11:13 58° WNW 06:16:13 10° SSW
ATLAS 2AS CENTAUR R/B 3.5 06:05:56 10° W 06:13:20 40° NNW 06:20:32 10° NE
ERBS 4.1 06:11:15 10° NW 06:13:39 18° N 06:16:03 10° NE
H-2A R/B 3.8 06:10:31 10° N 06:13:46 25° WNW 06:16:59 10° WSW
USA 290 4.2 06:12:27 10° N 06:15:19 26° ENE 06:18:08 10° ESE
Cosmos 1844 4.0 06:10:26 10° SW 06:15:44 44° NW 06:21:06 10° NNE
CZ-4B DEB 4.3 06:11:02 10° N 06:16:20 54° WNW 06:21:38 10° SW
Lacrosse 5 2.5 06:12:05 10° W 06:16:51 39° NNW 06:21:37 10° NE
Cosmos 1437 Rocket 3.6 06:13:38 10° NNW 06:16:53 28° W 06:20:07 10° SSW
Cosmos 372 Rocket 4.0 06:14:06 10° SW 06:19:05 55° WNW 06:24:08 10° NNE
Okean O Rocket 1.6 06:15:34 10° N 06:20:00 75° WNW 06:24:27 10° SSW
Geosat 4.0 06:16:58 10° SSE 06:22:00 80° WSW 06:27:04 10° NNW
Cosmos 1242 Rocket 2.8 06:18:23 10° N 06:22:03 77° ENE 06:25:42 10° SSE
PAYLOAD B 4.3 06:17:22 10° N 06:22:47 58° WNW 06:28:10 10° SW
SMAP 3.1 06:19:05 10° N 06:23:42 62° WNW 06:28:16 10° SSW
USA 81 4.1 06:19:46 10° SSW 06:24:58 63° W 06:30:14 10° N
